This is the latest recevied weather packets stored in our database for station/object SP3TOM-10. If no packets are shown the sender has not sent any weather packets the latest 10 day(s).
| Time | Temp. | Humidity | Pressure | Rain* | Wind** | Luminosity | Snow |
|---|---|---|---|---|---|---|---|
| 1777643168 | 25° C | 24% | 1014.6 hPa | - | - | - | - |
| 1777642268 | 25° C | 24% | 1014.7 hPa | - | - | - | - |
| 1777641368 | 25° C | 24% | 1014.7 hPa | - | - | - | - |
| 1777640467 | 24.44° C | 25% | 1014.9 hPa | - | - | - | - |
| 1777639567 | 24.44° C | 25% | 1015 hPa | - | - | - | - |
| 1777638667 | 24.44° C | 26% | 1015.2 hPa | - | - | - | - |
| 1777637767 | 24.44° C | 27% | 1015.3 hPa | - | - | - | - |
| 1777636867 | 23.89° C | 27% | 1015.5 hPa | - | - | - | - |
| 1777635966 | 23.89° C | 28% | 1015.6 hPa | - | - | - | - |
| 1777635066 | 23.33° C | 29% | 1015.8 hPa | - | - | - | - |
| 1777634166 | 22.78° C | 29% | 1015.9 hPa | - | - | - | - |
| 1777633266 | 22.78° C | 30% | 1016 hPa | - | - | - | - |
| 1777632366 | 22.78° C | 31% | 1016 hPa | - | - | - | - |
| 1777631466 | 22.22° C | 31% | 1016.2 hPa | - | - | - | - |
| 1777630565 | 21.67° C | 32% | 1016.2 hPa | - | - | - | - |
| 1777629665 | 20.56° C | 34% | 1016.4 hPa | - | - | - | - |
| 1777628765 | 20° C | 34% | 1016.6 hPa | - | - | - | - |
| 1777627865 | 19.44° C | 35% | 1016.7 hPa | - | - | - | - |
| 1777626965 | 18.89° C | 36% | 1016.9 hPa | - | - | - | - |
| 1777626065 | 18.33° C | 36% | 1016.9 hPa | - | - | - | - |
| 1777625165 | 17.78° C | 37% | 1016.8 hPa | - | - | - | - |
| 1777624264 | 17.22° C | 38% | 1017 hPa | - | - | - | - |
| 1777623364 | 16.67° C | 38% | 1017 hPa | - | - | - | - |
| 1777622464 | 16.11° C | 39% | 1016.8 hPa | - | - | - | - |
| 1777621564 | 15.56° C | 39% | 1017 hPa | - | - | - | - |
* Rain since midnight (hover to see other rain measurements)
** Current wind speed in m/s (hover to see current wind gust speed)